This is the latest recevied weather packets stored in our database for station/object AC0YE. If no packets are shown the sender has not sent any weather packets the latest 10 day(s).
| Time | Temp. | Humidity | Pressure | Rain* | Wind** | Luminosity | Snow |
|---|---|---|---|---|---|---|---|
| 1777829117 | 20° C | 46% | 1008.3 hPa | 0 mm | - | - | - |
| 1777827917 | 18.89° C | 47% | 1008.5 hPa | 0 mm | - | - | - |
| 1777827617 | 18.89° C | 48% | 1008.6 hPa | 0 mm | - | - | - |
| 1777826117 | 18.33° C | 49% | 1008.5 hPa | 0 mm | - | - | - |
| 1777825217 | 17.78° C | 49% | 1008.7 hPa | 0 mm | - | - | - |
| 1777824617 | 17.22° C | 49% | 1008.9 hPa | 0 mm | - | - | - |
| 1777823417 | 16.67° C | 50% | 1009 hPa | 0 mm | - | - | - |
| 1777823117 | 16.67° C | 49% | 1009.1 hPa | 0 mm | - | - | - |
| 1777822217 | 16.11° C | 50% | 1009.2 hPa | 0 mm | - | - | - |
| 1777821017 | 15.56° C | 51% | 1009.4 hPa | 0 mm | - | - | - |
| 1777820717 | 15.56° C | 51% | 1009.5 hPa | 0 mm | - | - | - |
| 1777819217 | 14.44° C | 53% | 1009.9 hPa | 0 mm | - | - | - |
| 1777818317 | 13.89° C | 53% | 1010.1 hPa | 0 mm | - | - | - |
| 1777818017 | 13.89° C | 54% | 1010.3 hPa | 0 mm | - | - | - |
| 1777817417 | 13.33° C | 54% | 1010.3 hPa | 0 mm | - | - | - |
| 1777814717 | 12.78° C | 56% | 1010.7 hPa | 0 mm | - | - | - |
| 1777814417 | 12.22° C | 57% | 1010.7 hPa | 0 mm | - | - | - |
| 1777814117 | 12.22° C | 59% | 1010.8 hPa | 0 mm | - | - | - |
| 1777813817 | 11.67° C | 59% | 1010.7 hPa | 0 mm | - | - | - |
| 1777812317 | 11.11° C | 62% | 1011.5 hPa | 0 mm | - | - | - |
| 1777812017 | 11.11° C | 63% | 1011.1 hPa | 0 mm | - | - | - |
| 1777811737 | 11.11° C | 64% | 1011.9 hPa | 0 mm | - | - | - |
| 1777809317 | 11.11° C | 63% | 1012.6 hPa | 0 mm | - | - | - |
| 1777807816 | 11.11° C | 59% | 1012.7 hPa | 0 mm | - | - | - |
| 1777800316 | 11.11° C | 55% | 1014.1 hPa | 0 mm | - | - | - |
* Rain latest hour (hover to see other rain measurements)
** Current wind speed in m/s (hover to see current wind gust speed)